Weather Roundup
Issued by NWS Chicago, IL

Home | Current Version | Previous Version | Graphics & Text | Print | Product List | Glossary On
Versions: 1 2 3 4 5 6 7 8 9 10 11 12 13 14 15 16 17 18 19 20 21 22 23 24 25 26 27 28 29 30 31 32 33 34 35 36 37 38 39 40 41 42 43 44 45 46 47 48 49 50
000
NZUS59 KLOT 261900
HRRLOT

CHICAGO AREA WEATHER ROUNDUP
NATIONAL WEATHER SERVICE CHICAGO/ROMEOVILLE IL
100 PM CST WED NOV 26 2014

NOTE: "FAIR" INDICATES FEW OR NO CLOUDS BELOW 12,000 FEET WITH NO
SIGNIFICANT WEATHER AND/OR OBSTRUCTIONS TO VISIBILITY.

* THESE STATIONS ARE NOT UNDER NWS QUALITY CONTROL. THEY ALSO MAY NOT
  REPORT WEATHER SUCH AS PRECIPITATION OR FOG.

ILZ005-006-012>014-019>023-262000-
NORTHEAST ILLINOIS

CITY           SKY/WX    TMP DP  RH WIND       PRES   REMARKS
OHARE          CLOUDY    28  21  75 E8        30.10F WCI  20
MIDWAY         CLOUDY    28  20  71 E6        30.12S WCI  22
AURORA         CLOUDY    27  18  69 E8        30.11F WCI  19
WAUKEGAN       CLOUDY    28  22  78 CALM      30.10F HAZE
DUPAGE AIRPORT CLOUDY    27  18  69 E5        30.09F WCI  22
WHEELING       CLOUDY    29  21  72 E5        30.12F WCI  24
NORTHERLY IS     N/A     27  21  78 SE7         N/A  WCI  20
$$

WIZ051-052-058>065-066-070>072-262000-
SOUTHEAST WISCONSIN

CITY           SKY/WX    TMP DP  RH WIND       PRES   REMARKS
MILWAUKEE      CLOUDY    28  20  71 CALM      30.12F
KENOSHA*       CLOUDY    28  23  81 CALM      30.11F HAZE
RACINE*        CLOUDY    28  21  75 VRB5      30.13F WCI  23
WAUKESHA       MOSUNNY  -51  19 100 NW3       30.12F
$$

INZ001>003-010>013-019-020-262000-
NORTHWEST INDIANA

CITY           SKY/WX    TMP DP  RH WIND       PRES   REMARKS
GARY*          CLOUDY    28  19  69 E7        30.12F WCI  21
MICHIGAN CITY* NOT AVBL
RENSSELAER*    NOT AVBL
$$

LMZ740>746-262000-
SOUTHERN LAKE MICHIGAN

STATION/POSITION TIME  SKY/WX   TEMP WIND        PRES    VSBY
                                AIR  DIR/SP/G
                 (UTC)          (F)  (DEG/KT/KT) (MB)    (MI)
HARRISON CRIB    1800            26  160/  9/ 14   N/A
BURNHAM HARBOR   1900            27  130/  7/ 11   N/A
CALUMET HARBOR   1800            26  100/  5/  7 1018.7F
BURNS HARBOR     NOT AVBL
MICHIGAN CITY    1800            26  140/  7/ 11   N/A
$$

ABBREVIATIONS USED IN REMARKS
   TC - TEMPERATURE IN CELSIUS
  WCI - WIND CHILL INDEX
   HX - HEAT INDEX
  VSB - VISIBILITY
$$


USA.gov is the U.S. government's official web portal to all federal, state and local government web resources and services.